星链-31132 (STARLINK-31132 )

导读 | 豆包AI

STARLINK-31132是美国太空探索技术公司(SpaceX)Starlink星链互联网星座的成员卫星,于北京时间2024年1月14日,由猎鹰九号运载火箭从加州范登堡太空军基地发射升空。作为二代星链卫星,它采用改进型相控阵天线设计,旨在为全球偏远、欠发达地区提供高速低延迟宽带互联网接入服务,扩展星链星座的全球覆盖能力。

Basic Information
目录编号:
58777
目录名称:
STARLINK-31132
国际标识:
2024-011N
轨道中心:
EARTH
卫星名称:
星链-31132
卫星全名:
星链-31132 (STARLINK-31132 )
卫星状态:
在轨 (已飞行837 天)
发射日期:
2024-01-14 UTC
国别 :
美国 (US)
星等 :
--
Orbit Information
数据来源 国际轨道数据 AOE轨道数据
星历时间 2026-04-30T22:00:02+0800
8小时前
查看轨道信息
2026-04-24T16:00:00+0800
6天前
查看轨道信息
半长轴 6848.954km 6853.358km
偏心率 0.0001416 0.0001418
轨道倾角 53.161° 53.158°
近地点辐角 96.759° 89.441°
升交点赤经 42.469° 71.525°
平近点角 297.971° 45.028°
近地点 469.847km 474.249km
远地点 471.787km 476.193km
周期 94.015分钟 94.105分钟
每日圈数 15.316743 15.301982
Detailed Information
固有亮度:
5
最大亮度:
0.3
卫星平台:
Starlink v2.0 mini
覆盖范围:
全球
运营商:
太空探索技术公司
运营商所在国:
美国
制造商(研发单位):
太空探索技术公司
制造商所在国:
美国
使用方式:
暂无
Satellite Introduction
星链(Starlink)计划是由太空探索技术公司(SpaceX)提出的一个巨型低轨卫星互联网星座项目,计划在2019年至2024年间在太空搭建由约1.2万颗卫星组成的“星链”网络,其中1584颗将部署在地球上空550千米处的近地轨道,并从2020年开始工作。该卫星仍在工作。
2D Orbit Map
3D Orbit Map
Orbit Altitude Analysis Chart
Orbit Inclination Analysis Chart
Orbit Comprehensive Analysis Chart
View Comprehensive Chart